Lafayette, IN

5:15 PM EDT on May 24, 2017 (GMT -0400)
Purdue Univ

Weather History for KLAF - November, 2011

Change the Weather History Date:

Friday, November 4, 2011

  Actual Average Record
Temperature  
Mean Temperature 46 °F 48 °F  
Max Temperature 55 °F 57 °F 78 °F (2003)
Min Temperature 36 °F 39 °F 18 °F (1991)
Degree Days  
Heating Degree Days 19 17  
Month to date heating degree days 55 66  
Since 1 July heating degree days 469 500  
Cooling Degree Days 0 0  
Month to date cooling degree days 0 0  
Year to date cooling degree days 1246 982  
Moisture  
Dew Point 35 °F    
Average Humidity 66    
Maximum Humidity 85    
Minimum Humidity 46    
Precipitation  
Precipitation 0.00 in 0.09 in 0.88 in (1988)
Month to date precipitation 0.26 0.37  
Year to date precipitation 35.92 31.47  
Sea Level Pressure  
Sea Level Pressure 30.21 in    
Wind  
Wind Speed 9 mph (NE)    
Max Wind Speed 14 mph    
Max Gust Speed 20 mph    
Visibility 10 miles    
Events      
T = Trace of Precipitation, MM = Missing Value Source: NWS Daily Summary

Daily Weather History Graph

Daily Weather History Graph

Search for Another Location

Airport or City:

Trip Planner

Search our weather history database for the weather conditions in past years. The results will help you decide how hot, cold, wet, or windy it might be!

Date:

Astronomy

Nov. 04, 2011 Rise Set
Actual Time 8:20 AM EDT 6:41 PM EDT
Civil Twilight 7:52 AM EDT 7:09 PM EDT
Nautical Twilight 7:19 AM EDT 7:42 PM EDT
Astronomical Twilight 6:48 AM EDT 8:13 PM EDT
Moon 3:33 PM EDT (11/4) 2:31 AM EDT (11/4)
Length of Visible Light 11h 17m
Length of Day
10h 20m
Waxing Gibbous, 69% of the Moon is Illuminated
Nov 4
Waxing Gibbous
Nov 10
Full
Nov 18
Last Quarter
Nov 25
New
Dec 2
First Quarter

Hourly Weather History & Observations

Time (EDT) Temp. Windchill Dew Point Humidity Pressure Visibility Wind Dir Wind Speed Gust Speed Precip Events Conditions
12:05 AM 48.2 °F - 42.8 °F 82% 30.08 in 10.0 mi NE 15.0 mph - N/A   Scattered Clouds
12:31 AM 46.4 °F 40.7 °F 41.0 °F 81% 30.08 in 10.0 mi NE 12.7 mph 19.6 mph N/A   Mostly Cloudy
12:54 AM 46.9 °F - 41.0 °F 80% 30.09 in 10.0 mi NNE 11.5 mph - N/A   Mostly Cloudy
1:54 AM 46.0 °F 40.6 °F 41.0 °F 83% 30.10 in 10.0 mi NNE 11.5 mph 18.4 mph N/A   Overcast
2:23 AM 44.6 °F 38.8 °F 39.2 °F 81% 30.10 in 10.0 mi NE 11.5 mph - N/A   Scattered Clouds
2:31 AM 44.6 °F 38.8 °F 39.2 °F 81% 30.10 in 10.0 mi NNE 11.5 mph - N/A   Mostly Cloudy
2:54 AM 45.0 °F 39.3 °F 39.9 °F 82% 30.11 in 10.0 mi NE 11.5 mph - N/A   Mostly Cloudy
3:02 AM 44.6 °F 38.8 °F 39.2 °F 81% 30.11 in 10.0 mi NE 11.5 mph - N/A   Scattered Clouds
3:54 AM 44.1 °F 38.1 °F 37.0 °F 76% 30.14 in 10.0 mi NNE 11.5 mph 17.3 mph N/A   Clear
4:54 AM 43.0 °F 37.7 °F 34.0 °F 71% 30.15 in 10.0 mi NE 9.2 mph - N/A   Clear
5:54 AM 41.0 °F 35.2 °F 34.0 °F 76% 30.17 in 10.0 mi NNE 9.2 mph - N/A   Clear
6:54 AM 39.0 °F - 33.1 °F 79% 30.20 in 10.0 mi North - - N/A   Clear
7:54 AM 37.9 °F 30.9 °F 33.1 °F 83% 30.20 in 10.0 mi NNE 10.4 mph 15.0 mph N/A   Clear
8:54 AM 37.9 °F 32.7 °F 33.1 °F 83% 30.24 in 10.0 mi NNE 6.9 mph - N/A   Clear
9:54 AM 41.0 °F 35.2 °F 34.0 °F 76% 30.27 in 10.0 mi ENE 9.2 mph - N/A   Clear
10:54 AM 44.1 °F 37.7 °F 36.0 °F 73% 30.28 in 10.0 mi East 12.7 mph - N/A   Clear
11:54 AM 46.0 °F 40.6 °F 37.0 °F 71% 30.30 in 10.0 mi East 11.5 mph - N/A   Clear
12:54 PM 48.9 °F - 37.0 °F 64% 30.30 in 10.0 mi ENE 8.1 mph - N/A   Clear
1:54 PM 52.0 °F - 36.0 °F 54% 30.28 in 10.0 mi NE 8.1 mph - N/A   Clear
2:54 PM 54.0 °F - 35.1 °F 49% 30.26 in 10.0 mi NE 9.2 mph - N/A   Clear
3:54 PM 54.0 °F - 33.1 °F 45% 30.26 in 10.0 mi ENE 9.2 mph - N/A   Clear
4:54 PM 54.0 °F - 33.1 °F 45% 30.26 in 10.0 mi East 9.2 mph - N/A   Clear
5:54 PM 52.0 °F - 32.0 °F 47% 30.26 in 10.0 mi ENE 11.5 mph - N/A   Clear
6:54 PM 48.0 °F - 30.9 °F 52% 30.26 in 10.0 mi ENE 5.8 mph - N/A   Clear
7:54 PM 44.1 °F 40.8 °F 32.0 °F 63% 30.28 in 10.0 mi NE 5.8 mph - N/A   Clear
8:54 PM 42.1 °F 38.4 °F 30.9 °F 65% 30.29 in 10.0 mi ENE 5.8 mph - N/A   Clear
9:54 PM 42.1 °F 36.6 °F 30.9 °F 65% 30.29 in 10.0 mi East 9.2 mph - N/A   Clear
10:54 PM 42.1 °F 36.1 °F 28.9 °F 60% 30.30 in 10.0 mi East 10.4 mph - N/A   Clear
11:54 PM 39.9 °F 33.4 °F 28.9 °F 65% 30.30 in 10.0 mi ESE 10.4 mph - N/A   Clear